User: anonymous   Login
Location: Unspecified
(0.0000°N, 0.0000°E)
Time: 20:53:12
(UTC+00:00)
Language:

USA 270 - Orbit

View from above orbital plane
View from above orbital plane
View from above satellite
View from above satellite

Ground track
Ground track

The orbit data is extracted from the following two-line orbital elements,

1 41744U 16052A   18095.23032789 0.00000000  00000-0  00000-0 0    04
2 41744   0.1920  72.0636 0013310 268.1807  91.8193  1.00158926    01
Epoch (UTC): 05 April 2018 05:31:40
Eccentricity: 0.0013310
inclination: 0.1920°
perigee height: 35762 km
apogee height: 35874 km
right ascension of ascending node: 72.0636°
argument of perigee: 268.1807°
revolutions per day: 1.00158926
mean anomaly at epoch: 91.8193°
orbit number at epoch: 0

The dashed part of the orbit path shows where the satellite is in the earth's shadow,  

DLR